EW2310 Weather Reports


Display with metric or nautical units.
time (UTC)temp
F
wind
direction
speed
MPH
gust
MPH
rain 1hr
in
rain 24hr
in
rain mn
in
humidity
%
barometer
mb
20220123054029 43 98 4.0 4.0 0.00 0.00 0.00 62 1026.5
20220123053529 43 82 3.0 4.0 0.00 0.00 0.00 61 1026.4
20220123053029 43 99 3.0 5.0 0.00 0.00 0.00 61 1026.4
20220123052529 43 93 3.0 6.0 0.00 0.00 0.00 61 1026.4
20220123052029 43 98 1.0 3.0 0.00 0.00 0.00 61 1026.4
20220123051529 42 93 2.0 3.0 0.00 0.00 0.00 62 1026.4
20220123051029 42 56 1.0 2.0 0.00 0.00 0.00 61 1026.4
20220123050529 42 41 0.0 4.0 0.00 0.00 0.00 61 1026.4
20220123050029 42 9 2.0 3.0 0.00 0.00 0.00 61 1026.4
20220123045529 42 5 2.0 3.0 0.00 0.00 0.00 61 1026.4
20220123045029 42 0 2.0 3.0 0.00 0.00 0.00 62 1026.3
20220123044529 42 355 3.0 3.0 0.00 0.00 0.00 62 1026.3
20220123044029 41 322 2.0 3.0 0.00 0.00 0.00 62 1026.3
20220123043529 41 336 2.0 4.0 0.00 0.00 0.00 63 1026.3
20220123043029 40 344 2.0 4.0 0.00 0.00 0.00 65 1026.4
20220123042529 39 290 1.0 3.0 0.00 0.00 0.00 65 1026.3
20220123042029 40 293 1.0 3.0 0.00 0.00 0.00 64 1026.3
20220123041529 41 326 2.0 3.0 0.00 0.00 0.00 63 1026.3
20220123041029 41 336 3.0 3.0 0.00 0.00 0.00 64 1026.2
20220123040529 41 351 2.0 4.0 0.00 0.00 0.00 64 1026.3
20220123040029 41 355 3.0 4.0 0.00 0.00 0.00 64 1026.3
20220123035529 40 321 2.0 4.0 0.00 0.00 0.00 65 1026.3
20220123035029 39 327 2.0 5.0 0.00 0.00 0.00 65 1026.2
20220123034529 39 289 2.0 4.0 0.00 0.00 0.00 65 1026.2
20220123034029 39 309 1.0 3.0 0.00 0.00 0.00 63 1026.2
20220123033529 40 335 2.0 3.0 0.00 0.00 0.00 63 1026.3
20220123033029 40 318 3.0 3.0 0.00 0.00 0.00 63 1026.2
20220123032529 39 315 3.0 5.0 0.00 0.00 0.00 63 1026.3
20220123032029 39 336 5.0 6.0 0.00 0.00 0.00 63 1026.3
20220123031529 39 323 4.0 6.0 0.00 0.00 0.00 64 1026.2
20220123031029 39 330 4.0 6.0 0.00 0.00 0.00 63 1026.2
20220123030525 40 348 3.0 6.0 0.00 0.00 0.00 63 1026.2
20220123030025 40 321 5.0 6.0 0.00 0.00 0.00 62 1026.1
20220123025525 40 324 3.0 5.0 0.00 0.00 0.00 62 1026.1
20220123025025 40 327 3.0 4.0 0.00 0.00 0.00 62 1026.0
20220123024525 40 323 2.0 4.0 0.00 0.00 0.00 61 1026.0
20220123024025 40 329 2.0 4.0 0.00 0.00 0.00 60 1026.0
20220123023525 41 324 3.0 4.0 0.00 0.00 0.00 60 1026.0
20220123023025 41 322 3.0 3.0 0.00 0.00 0.00 59 1026.0
20220123022525 41 344 1.0 2.0 0.00 0.00 0.00 58 1026.1
20220123022025 41 335 1.0 5.0 0.00 0.00 0.00 57 1026.2
20220123021525 42 317 3.0 5.0 0.00 0.00 0.00 56 1026.1
20220123021025 42 325 4.0 4.0 0.00 0.00 0.00 54 1026.2
20220123020525 43 355 2.0 3.0 0.00 0.00 0.00 54 1026.2
20220123020025 42 310 2.0 3.0 0.00 0.00 0.00 55 1026.2
20220123015525 41 306 1.0 2.0 0.00 0.00 0.00 55 1026.2
20220123015025 40 306 2.0 2.0 0.00 0.00 0.00 58 1026.3
20220123014525 41 306 1.0 3.0 0.00 0.00 0.00 58 1026.3
20220123014025 40 301 1.0 3.0 0.00 0.00 0.00 58 1026.3
20220123013525 41 316 2.0 4.0 0.00 0.00 0.00 57 1026.3
20220123013025 41 313 2.0 5.0 0.00 0.00 0.00 57 1026.2
20220123012525 40 309 3.0 4.0 0.00 0.00 0.00 58 1026.2
20220123012025 41 296 0.0 4.0 0.00 0.00 0.00 58 1026.1
20220123011525 41 320 2.0 5.0 0.00 0.00 0.00 58 1026.2
20220123011025 40 24 3.0 6.0 0.00 0.00 0.00 58 1026.2
20220123010525 40 14 3.0 7.0 0.00 0.00 0.00 59 1026.1
20220123010025 41 66 3.0 8.0 0.00 0.00 0.00 59 1026.1
20220123005525 40 10 5.0 8.0 0.00 0.00 0.00 60 1026.1
20220123005025 40 343 4.0 4.0 0.00 0.00 0.00 62 1026.1
20220123004525 40 67 3.0 5.0 0.00 0.00 0.00 62 1026.1
20220123004025 40 13 3.0 4.0 0.00 0.00 0.00 61 1026.0
20220123003525 40 61 2.0 5.0 0.00 0.00 0.00 61 1025.9
20220123003025 40 22 1.0 4.0 0.00 0.00 0.00 62 1025.8
20220123002525 40 125 2.0 5.0 0.00 0.00 0.00 61 1025.8
20220123002025 41 120 4.0 5.0 0.00 0.00 0.00 60 1025.7
20220123001525 41 331 3.0 8.0 0.00 0.00 0.00 60 1025.6
20220123001025 41 319 5.0 11.0 0.00 0.00 0.00 59 1025.6
20220123000525 41 336 6.0 10.0 0.00 0.00 0.00 59 1025.5
20220123000025 41 315 6.0 10.0 0.00 0.00 0.00 59 1025.5
20220122235525 41 323 4.0 10.0 0.00 0.00 0.00 60 1025.6
20220122235025 41 37 3.0 8.0 0.00 0.00 0.00 60 1025.6
20220122234525 41 355 2.0 8.0 0.00 0.00 0.00 60 1025.4
20220122234025 41 335 3.0 11.0 0.00 0.00 0.00 59 1025.4
20220122233526 41 319 6.0 11.0 0.00 0.00 0.00 58 1025.2
20220122233025 41 328 12.0 13.0 0.00 0.00 0.00 58 1025.1
20220122232525 41 294 3.0 13.0 0.00 0.00 0.00 59 1025.2
20220122232026 41 323 10.0 13.0 0.00 0.00 0.00 59 1025.3
20220122231526 42 305 4.0 15.0 0.00 0.00 0.00 58 1025.2
20220122231025 42 338 5.0 17.0 0.00 0.00 0.00 57 1025.2
20220122230526 42 309 10.0 16.0 0.00 0.00 0.00 56 1025.2
20220122230026 42 320 11.0 15.0 0.00 0.00 0.00 58 1025.2
20220122225526 42 307 8.0 15.0 0.00 0.00 0.00 59 1025.2
20220122225026 42 314 10.0 15.0 0.00 0.00 0.00 60 1025.2
20220122224526 41 322 8.0 14.0 0.00 0.00 0.00 61 1025.2
20220122224026 41 292 7.0 12.0 0.00 0.00 0.00 62 1025.2
20220122223526 41 300 12.0 13.0 0.00 0.00 0.00 63 1025.2
20220122223026 41 333 8.0 14.0 0.00 0.00 0.00 63 1025.2
20220122222526 42 321 6.0 15.0 0.00 0.00 0.00 61 1025.2
20220122222026 42 333 11.0 16.0 0.00 0.00 0.00 61 1025.2
20220122221526 42 333 13.0 15.0 0.00 0.00 0.00 61 1025.2
20220122221026 42 331 13.0 15.0 0.00 0.00 0.00 62 1025.1
20220122220526 42 325 9.0 12.0 0.00 0.00 0.00 62 1025.3
20220122220026 42 317 9.0 12.0 0.00 0.00 0.00 62 1025.2
20220122215526 42 330 6.0 14.0 0.00 0.00 0.00 63 1025.2
20220122215026 42 310 5.0 13.0 0.00 0.00 0.00 63 1025.2
20220122214526 42 319 5.0 14.0 0.00 0.00 0.00 63 1025.2
20220122214026 42 271 9.0 13.0 0.00 0.00 0.00 63 1025.1
20220122213526 42 329 9.0 12.0 0.00 0.00 0.00 62 1025.2
20220122213026 43 331 10.0 14.0 0.00 0.00 0.00 62 1025.2
20220122212526 43 331 11.0 14.0 0.00 0.00 0.00 62 1025.3
20220122212026 43 338 10.0 12.0 0.00 0.00 0.00 61 1025.2
20220122211526 44 347 9.0 13.0 0.00 0.00 0.00 60 1025.2
20220122211026 44 279 6.0 11.0 0.00 0.00 0.00 60 1025.2
20220122210526 44 340 8.0 8.0 0.00 0.00 0.00 62 1025.2
20220122210026 43 313 4.0 8.0 0.00 0.00 0.00 63 1025.3
20220122205526 43 307 2.0 8.0 0.00 0.00 0.00 63 1025.3
20220122205026 43 323 4.0 7.0 0.00 0.00 0.00 64 1025.3
20220122204526 43 300 4.0 7.0 0.00 0.00 0.00 63 1025.3
20220122204026 43 299 3.0 6.0 0.00 0.00 0.00 63 1025.4
20220122203526 43 307 3.0 8.0 0.00 0.00 0.00 63 1025.3
20220122203026 44 326 6.0 9.0 0.00 0.00 0.00 63 1025.4
20220122202526 44 294 7.0 8.0 0.00 0.00 0.00 61 1025.4
20220122202026 44 307 3.0 4.0 0.00 0.00 0.00 62 1025.4
20220122201526 44 280 3.0 4.0 0.00 0.00 0.00 62 1025.4
20220122201026 44 331 1.0 8.0 0.00 0.00 0.00 60 1025.4
20220122200526 44 296 7.0 7.0 0.00 0.00 0.00 60 1025.4
20220122200026 45 290 3.0 10.0 0.00 0.00 0.00 60 1025.4
20220122195526 45 311 4.0 9.0 0.00 0.00 0.00 59 1025.4
20220122195026 45 291 4.0 9.0 0.00 0.00 0.00 59 1025.4
20220122194526 45 331 6.0 8.0 0.00 0.00 0.00 59 1025.2
20220122194026 44 314 3.0 5.0 0.00 0.00 0.00 61 1025.1
20220122193526 45 313 2.0 7.0 0.00 0.00 0.00 60 1025.1
20220122193026 44 313 4.0 7.0 0.00 0.00 0.00 61 1025.0
20220122192526 44 306 7.0 5.0 0.00 0.00 0.00 61 1025.0
20220122192026 45 305 2.0 4.0 0.00 0.00 0.00 62 1025.0
20220122191526 45 306 2.0 3.0 0.00 0.00 0.00 61 1025.1
20220122191026 45 321 2.0 5.0 0.00 0.00 0.00 61 1025.2
20220122190526 45 293 4.0 5.0 0.00 0.00 0.00 61 1025.1
20220122190026 45 306 2.0 5.0 0.00 0.00 0.00 61 1025.1
20220122185526 45 319 2.0 5.0 0.00 0.00 0.00 61 1025.0
20220122185026 45 321 2.0 5.0 0.00 0.00 0.00 61 1025.0
20220122184526 45 309 2.0 5.0 0.00 0.00 0.00 60 1025.0
20220122184026 45 294 2.0 4.0 0.00 0.00 0.00 60 1024.9
20220122183526 45 333 2.0 5.0 0.00 0.00 0.00 60 1024.8
20220122183026 45 294 1.0 3.0 0.00 0.00 0.00 61 1024.8
20220122182526 45 312 1.0 3.0 0.00 0.00 0.00 61 1024.8
20220122182026 45 305 1.0 4.0 0.00 0.00 0.00 61 1024.8
20220122181526 46 333 2.0 5.0 0.00 0.00 0.00 60 1024.8
20220122181026 46 313 3.0 7.0 0.00 0.00 0.00 60 1024.8
20220122180526 46 309 3.0 5.0 0.00 0.00 0.00 59 1024.7
20220122180026 46 317 3.0 7.0 0.00 0.00 0.00 60 1024.7
20220122175526 46 275 2.0 8.0 0.00 0.00 0.00 60 1024.7
20220122175026 47 322 2.0 7.0 0.00 0.00 0.00 59 1024.7
20220122174526 47 301 4.0 7.0 0.00 0.00 0.00 60 1024.7
20220122174026 46 323 4.0 5.0 0.00 0.00 0.00 60 1024.8
20220122173526 47 322 4.0 6.0 0.00 0.00 0.00 59 1024.6
20220122173026 47 323 4.0 9.0 0.00 0.00 0.00 59 1024.5
20220122172526 47 327 5.0 8.0 0.00 0.00 0.00 59 1024.5
20220122172026 47 302 3.0 7.0 0.00 0.00 0.00 60 1024.5
20220122171526 47 267 1.0 5.0 0.00 0.00 0.00 62 1024.5
20220122171026 47 320 2.0 5.0 0.00 0.00 0.00 62 1024.4
20220122170526 47 332 1.0 5.0 0.00 0.00 0.00 63 1024.2
20220122170026 47 284 2.0 4.0 0.00 0.00 0.00 64 1024.2
20220122165526 47 315 1.0 5.0 0.00 0.00 0.00 64 1024.2
20220122165027 48 322 2.0 3.0 0.00 0.00 0.00 65 1024.2
20220122164527 48 330 0.0 6.0 0.00 0.00 0.00 65 1024.1
20220122164027 48 246 2.0 5.0 0.00 0.00 0.00 64 1024.1
20220122163526 48 259 1.0 5.0 0.00 0.00 0.00 65 1024.1
20220122163027 48 325 4.0 4.0 0.00 0.00 0.00 65 1024.1
20220122162527 48 301 0.0 3.0 0.00 0.00 0.00 65 1024.0
20220122162026 48 327 0.0 6.0 0.00 0.00 0.00 65 1024.0
20220122161526 49 323 3.0 4.0 0.00 0.00 0.00 65 1024.0
20220122161027 49 294 3.0 7.0 0.00 0.00 0.00 65 1024.0
20220122160527 49 280 1.0 5.0 0.00 0.00 0.00 65 1024.0
20220122160027 49 281 1.0 9.0 0.00 0.00 0.00 65 1024.0
20220122155526 50 307 1.0 10.0 0.00 0.00 0.00 64 1024.0
20220122155027 50 262 1.0 4.0 0.00 0.00 0.00 64 1023.9
20220122154527 50 294 2.0 6.0 0.00 0.00 0.00 63 1023.9
20220122154027 50 240 2.0 7.0 0.00 0.00 0.00 62 1023.9
20220122153527 51 5 1.0 6.0 0.00 0.00 0.00 62 1023.9
20220122153027 51 315 4.0 8.0 0.00 0.00 0.00 61 1023.9
20220122152527 51 295 1.0 7.0 0.00 0.00 0.00 60 1023.9
20220122152027 52 217 4.0 4.0 0.00 0.00 0.00 60 1023.8
20220122151527 52 248 1.0 7.0 0.00 0.00 0.00 60 1023.8
20220122151027 52 288 1.0 4.0 0.00 0.00 0.00 60 1023.9
20220122150527 51 295 4.0 10.0 0.00 0.00 0.00 60 1023.9
20220122150027 51 309 2.0 10.0 0.00 0.00 0.00 60 1023.8
20220122145527 52 274 2.0 5.0 0.00 0.00 0.00 61 1023.9
20220122145027 52 341 2.0 8.0 0.00 0.00 0.00 61 1023.9
20220122144527 51 263 1.0 8.0 0.00 0.00 0.00 61 1023.8
20220122144027 52 110 3.0 11.0 0.00 0.00 0.00 61 1023.8
20220122143527 52 197 4.0 7.0 0.00 0.00 0.00 60 1023.8
20220122143027 52 218 2.0 7.0 0.00 0.00 0.00 61 1023.7
20220122142527 52 5 3.0 10.0 0.00 0.00 0.00 61 1023.7
20220122142027 52 296 1.0 12.0 0.00 0.00 0.00 62 1023.7
20220122141527 52 348 4.0 9.0 0.00 0.00 0.00 62 1023.7
20220122141027 52 312 0.0 7.0 0.00 0.00 0.00 63 1023.8
20220122140527 52 223 2.0 11.0 0.00 0.00 0.00 63 1023.8
20220122140027 52 324 13.0 15.0 0.00 0.00 0.00 63 1023.8
20220122135527 52 317 8.0 12.0 0.00 0.00 0.00 62 1023.7
20220122135027 52 247 4.0 13.0 0.00 0.00 0.00 63 1023.6
20220122134527 52 319 4.0 12.0 0.00 0.00 0.00 63 1023.7
20220122134027 52 231 4.0 14.0 0.00 0.00 0.00 62 1023.7
20220122133527 53 323 2.0 8.0 0.00 0.00 0.00 62 1023.8
20220122133027 53 117 1.0 11.0 0.00 0.00 0.00 62 1023.7
20220122132527 53 14 1.0 9.0 0.00 0.00 0.00 62 1023.8
20220122132027 53 219 3.0 13.0 0.00 0.00 0.00 61 1023.8
20220122131527 53 276 2.0 10.0 0.00 0.00 0.00 61 1023.8
20220122131027 53 5 2.0 11.0 0.00 0.00 0.00 61 1023.8
20220122130527 52 229 1.0 7.0 0.00 0.00 0.00 63 1023.8
20220122130027 52 219 8.0 9.0 0.00 0.00 0.00 63 1023.9
20220122125527 52 80 4.0 8.0 0.00 0.00 0.00 63 1024.0
20220122125027 52 196 2.0 9.0 0.00 0.00 0.00 63 1024.0
20220122124527 52 169 4.0 10.0 0.00 0.00 0.00 63 1024.0
20220122124027 52 148 4.0 8.0 0.00 0.00 0.00 63 1024.1
20220122123527 52 80 3.0 9.0 0.00 0.00 0.00 63 1024.1
20220122123027 52 136 3.0 5.0 0.00 0.00 0.00 64 1024.1
20220122122527 52 69 1.0 4.0 0.00 0.00 0.00 65 1024.0
20220122122027 52 225 3.0 8.0 0.00 0.00 0.00 65 1024.0
20220122121527 51 267 2.0 7.0 0.00 0.00 0.00 65 1024.0
20220122121027 52 54 3.0 5.0 0.00 0.00 0.00 64 1024.0
20220122120527 52 134 3.0 8.0 0.00 0.00 0.00 64 1024.0
20220122120027 53 25 2.0 6.0 0.00 0.00 0.00 63 1024.1
20220122115527 52 0 3.0 7.0 0.00 0.00 0.00 63 1024.1
20220122115027 52 105 3.0 4.0 0.00 0.00 0.00 63 1024.1
20220122114527 52 221 0.0 5.0 0.00 0.00 0.00 64 1024.1
20220122114027 51 67 2.0 6.0 0.00 0.00 0.00 63 1024.2
20220122113527 51 81 1.0 7.0 0.00 0.00 0.00 63 1024.2
20220122113027 51 152 3.0 8.0 0.00 0.00 0.00 63 1024.2
20220122112527 51 344 3.0 7.0 0.00 0.00 0.00 63 1024.3
20220122112027 51 198 2.0 4.0 0.00 0.00 0.00 65 1024.3
20220122111527 51 61 1.0 3.0 0.00 0.00 0.00 65 1024.3
20220122111027 51 139 2.0 4.0 0.00 0.00 0.00 64 1024.3
20220122110527 51 111 3.0 7.0 0.00 0.00 0.00 62 1024.2
20220122110027 52 101 1.0 6.0 0.00 0.00 0.00 61 1024.3
20220122105527 52 200 0.0 7.0 0.00 0.00 0.00 60 1024.4
20220122105027 51 143 2.0 8.0 0.00 0.00 0.00 59 1024.3
20220122104527 51 252 2.0 5.0 0.00 0.00 0.00 58 1024.4
20220122104027 51 166 3.0 9.0 0.00 0.00 0.00 57 1024.3
20220122103527 51 213 1.0 4.0 0.00 0.00 0.00 56 1024.4
20220122103027 51 252 2.0 5.0 0.00 0.00 0.00 56 1024.4
20220122102527 51 198 6.0 8.0 0.00 0.00 0.00 58 1024.5
20220122102027 51 227 5.0 5.0 0.00 0.00 0.00 58 1024.4
20220122101527 50 178 2.0 6.0 0.00 0.00 0.00 58 1024.4
20220122101027 50 162 0.0 7.0 0.00 0.00 0.00 57 1024.4
20220122100527 50 257 1.0 5.0 0.00 0.00 0.00 55 1024.4
20220122100027 50 157 0.0 4.0 0.00 0.00 0.00 55 1024.5
20220122095527 49 134 3.0 5.0 0.00 0.00 0.00 55 1024.4
20220122095027 48 157 3.0 5.0 0.00 0.00 0.00 54 1024.5
20220122094527 48 158 3.0 7.0 0.00 0.00 0.00 53 1024.5
20220122094027 48 195 4.0 7.0 0.00 0.00 0.00 53 1024.5
20220122093528 48 164 4.0 4.0 0.00 0.00 0.00 54 1024.5
20220122093028 48 178 1.0 3.0 0.00 0.00 0.00 55 1024.4
20220122092528 47 255 0.0 2.0 0.00 0.00 0.00 56 1024.4
20220122092028 47 135 0.0 6.0 0.00 0.00 0.00 56 1024.3
20220122091528 47 155 1.0 5.0 0.00 0.00 0.00 54 1024.1
20220122091028 47 158 2.0 5.0 0.00 0.00 0.00 53 1024.1
20220122090528 46 155 3.0 6.0 0.00 0.00 0.00 50 1024.1
20220122090028 47 155 4.0 7.0 0.00 0.00 0.00 51 1024.1
20220122085528 47 210 2.0 4.0 0.00 0.00 0.00 52 1024.0
20220122085028 46 154 2.0 5.0 0.00 0.00 0.00 52 1024.1
20220122084528 46 173 1.0 3.0 0.00 0.00 0.00 52 1024.0
20220122084028 46 180 0.0 2.0 0.00 0.00 0.00 53 1024.0
20220122083528 44 169 0.0 4.0 0.00 0.00 0.00 54 1024.0
20220122083028 43 267 1.0 3.0 0.00 0.00 0.00 56 1023.9
20220122082528 43 333 4.0 5.0 0.00 0.00 0.00 54 1023.9
20220122082028 44 298 0.0 1.0 0.00 0.00 0.00 56 1023.8
20220122081528 42 314 0.0 2.0 0.00 0.00 0.00 56 1023.9
20220122081028 42 314 1.0 2.0 0.00 0.00 0.00 56 1024.0
20220122080528 41 342 1.0 4.0 0.00 0.00 0.00 59 1024.1
20220122080028 41 303 2.0 8.0 0.00 0.00 0.00 57 1024.1
20220122075528 40 12 2.0 8.0 0.00 0.00 0.00 57 1024.2
20220122075028 40 355 4.0 6.0 0.00 0.00 0.00 57 1024.2
20220122074528 40 331 4.0 8.0 0.00 0.00 0.00 59 1024.2
20220122074028 40 325 2.0 9.0 0.00 0.00 0.00 58 1024.2
20220122073528 39 348 4.0 9.0 0.00 0.00 0.00 60 1024.2
20220122073028 39 319 8.0 10.0 0.00 0.00 0.00 61 1024.2
20220122072528 39 290 4.0 13.0 0.00 0.00 0.00 62 1024.1
20220122072028 38 298 3.0 11.0 0.00 0.00 0.00 63 1024.0
20220122071528 38 322 5.0 10.0 0.00 0.00 0.00 63 1023.9
20220122071028 38 303 4.0 11.0 0.00 0.00 0.00 63 1023.9
20220122070528 38 327 10.0 11.0 0.00 0.00 0.00 63 1023.9
20220122070028 38 327 6.0 11.0 0.00 0.00 0.00 63 1023.9
20220122065528 38 315 6.0 11.0 0.00 0.00 0.00 64 1023.8
20220122065028 38 321 6.0 10.0 0.00 0.00 0.00 65 1023.8
20220122064528 38 314 8.0 11.0 0.00 0.00 0.00 65 1023.7
20220122064028 38 288 4.0 9.0 0.00 0.00 0.00 65 1023.7
20220122063528 39 280 4.0 14.0 0.00 0.00 0.00 65 1023.6
20220122063028 39 333 9.0 15.0 0.00 0.00 0.00 65 1023.6
20220122062528 39 306 4.0 13.0 0.00 0.00 0.00 64 1023.4
20220122062028 39 301 7.0 12.0 0.00 0.00 0.00 64 1023.4
20220122061528 39 322 5.0 10.0 0.00 0.00 0.00 65 1023.2
20220122061028 39 312 5.0 14.0 0.00 0.00 0.00 64 1023.2
20220122060528 39 273 7.0 14.0 0.00 0.00 0.00 64 1023.1
20220122060028 39 331 8.0 12.0 0.00 0.00 0.00 65 1023.2
20220122055528 39 303 7.0 11.0 0.00 0.00 0.00 65 1023.0
20220122055028 40 312 2.0 8.0 0.00 0.00 0.00 65 1023.0
20220122054528 40 322 5.0 9.0 0.00 0.00 0.00 65 1022.9